When you browse on this site, cookies collect data to enhance your experience and personalize the content and advertising you see.
Visit our Privacy Policy to learn more. By continuing to use the site, you agree to this use of cookies and data.
  • Em Portugal
  • Lista de países
  • Para 7 dias
  • Temperatura da água
  • Mapas de satélite
  • Mapa do tempo
  • Widgets de tempo
  • user-avatar
    Iniciar Sessão

    Previsão horária em Satif

    Hoje, 24 Março, Domingo

    Tempo Temperatura Precipitação Vento Pressão Humidade
    00:00 +6°C° 0 mm 0 m/s 674 mmHg 95%
    01:00 +6°C° 0 mm 1 m/s 674 mmHg 95%
    02:00 +6°C° 0 mm 1 m/s 674 mmHg 94%
    03:00 +5°C° 0 mm 1 m/s 673 mmHg 94%
    04:00 +5°C° 0 mm 1 m/s 674 mmHg 93%
    05:00 +5°C° 0 mm 1 m/s 674 mmHg 93%
    06:00 +5°C° 0 mm 1 m/s 674 mmHg 92%
    07:00 +7°C° 0 mm 1 m/s 674 mmHg 83%
    08:00 +10°C° 0 mm 1 m/s 675 mmHg 73%
    09:00 +12°C° 0 mm 1 m/s 676 mmHg 64%
    10:00 +13°C° 0 mm 1 m/s 676 mmHg 58%
    11:00 +14°C° 0 mm 2 m/s 676 mmHg 52%
    12:00 +15°C° 0 mm 2 m/s 676 mmHg 46%
    13:00 +14°C° 0.1 mm 3 m/s 676 mmHg 46%
    14:00 +14°C° 0.1 mm 3 m/s 676 mmHg 47%
    15:00 +15°C° 0.1 mm 4 m/s 675 mmHg 47%
    16:00 +13°C° 0.2 mm 4 m/s 675 mmHg 52%
    17:00 +12°C° 0.2 mm 3 m/s 674 mmHg 56%
    18:00 +11°C° 0.2 mm 3 m/s 674 mmHg 61%
    19:00 +12°C° 0 mm 2 m/s 674 mmHg 62%
    20:00 +10°C° 0 mm 2 m/s 674 mmHg 63%
    21:00 +10°C° 0 mm 2 m/s 674 mmHg 64%
    22:00 +10°C° 0 mm 2 m/s 674 mmHg 64%
    23:00 +9°C° 0 mm 2 m/s 674 mmHg 65%

    Amanhã, 25 Março, Segunda-feira

    Tempo Temperatura Precipitação Vento Pressão Humidade
    00:00 +9°C° 0 mm 2 m/s 674 mmHg 65%
    01:00 +8°C° 0 mm 2 m/s 674 mmHg 67%
    02:00 +8°C° 0 mm 2 m/s 673 mmHg 69%
    03:00 +7°C° 0 mm 2 m/s 673 mmHg 72%
    04:00 +7°C° 0 mm 2 m/s 673 mmHg 73%
    05:00 +7°C° 0 mm 2 m/s 672 mmHg 75%
    06:00 +7°C° 0 mm 2 m/s 672 mmHg 77%
    07:00 +9°C° 0 mm 2 m/s 673 mmHg 68%
    08:00 +11°C° 0 mm 3 m/s 674 mmHg 60%
    09:00 +13°C° 0 mm 3 m/s 674 mmHg 52%
    10:00 +14°C° 0 mm 4 m/s 674 mmHg 48%
    11:00 +15°C° 0 mm 4 m/s 674 mmHg 45%
    12:00 +15°C° 0 mm 5 m/s 674 mmHg 42%
    13:00 +15°C° 0.1 mm 5 m/s 674 mmHg 43%
    14:00 +15°C° 0.1 mm 4 m/s 673 mmHg 45%
    15:00 +14°C° 0.1 mm 4 m/s 672 mmHg 46%
    16:00 +13°C° 0 mm 3 m/s 672 mmHg 52%
    17:00 +12°C° 0 mm 3 m/s 671 mmHg 58%
    18:00 +12°C° 0 mm 2 m/s 671 mmHg 64%
    19:00 +10°C° 0 mm 2 m/s 671 mmHg 70%
    20:00 +10°C° 0 mm 1 m/s 671 mmHg 75%
    21:00 +8°C° 0 mm 0 m/s 671 mmHg 81%
    22:00 +8°C° 0 mm 0 m/s 671 mmHg 81%
    23:00 +7°C° 0 mm 0 m/s 671 mmHg 81%

    Depois de amanhã, 26 Março, Terça-feira

    Tempo Temperatura Precipitação Vento Pressão Humidade
    00:00 +7°C° 0 mm 0 m/s 671 mmHg 82%
    01:00 +7°C° 0 mm 0 m/s 670 mmHg 82%
    02:00 +7°C° 0 mm 0 m/s 670 mmHg 82%
    03:00 +7°C° 0 mm 1 m/s 670 mmHg 81%
    04:00 +7°C° 0 mm 1 m/s 670 mmHg 85%
    05:00 +6°C° 0 mm 2 m/s 670 mmHg 88%
    06:00 +6°C° 0 mm 2 m/s 670 mmHg 91%
    07:00 +7°C° 0 mm 2 m/s 671 mmHg 87%
    08:00 +8°C° 0 mm 3 m/s 671 mmHg 84%
    09:00 +8°C° 0 mm 3 m/s 672 mmHg 81%
    10:00 +9°C° 0 mm 3 m/s 672 mmHg 77%
    11:00 +8°C° 0 mm 4 m/s 672 mmHg 73%
    12:00 +10°C° 0 mm 4 m/s 672 mmHg 69%
    13:00 +10°C° 0 mm 4 m/s 672 mmHg 67%
    14:00 +10°C° 0 mm 4 m/s 672 mmHg 64%
    15:00 +9°C° 0 mm 5 m/s 672 mmHg 61%
    16:00 +8°C° 0 mm 5 m/s 672 mmHg 66%
    17:00 +6°C° 0 mm 4 m/s 672 mmHg 71%
    18:00 +5°C° 0 mm 4 m/s 672 mmHg 76%
    19:00 +5°C° 0 mm 4 m/s 672 mmHg 78%
    20:00 +4°C° 0 mm 3 m/s 672 mmHg 80%
    21:00 +4°C° 0 mm 3 m/s 673 mmHg 82%
    22:00 +4°C° 0 mm 3 m/s 673 mmHg 82%
    23:00 +3°C° 0 mm 3 m/s 673 mmHg 82%

    27 Março, Quarta-feira

    Tempo Temperatura Precipitação Vento Pressão Humidade
    00:00 +3°C° 0 mm 3 m/s 672 mmHg 82%
    01:00 +3°C° 0 mm 3 m/s 672 mmHg 81%
    02:00 +2°C° 0 mm 3 m/s 672 mmHg 80%
    03:00 +3°C° 0 mm 2 m/s 672 mmHg 79%
    04:00 +3°C° 0 mm 2 m/s 672 mmHg 82%
    05:00 +3°C° 0 mm 1 m/s 672 mmHg 84%
    06:00 +3°C° 0 mm 1 m/s 672 mmHg 87%
    07:00 +4°C° 0 mm 1 m/s 673 mmHg 82%
    08:00 +4°C° 0 mm 2 m/s 673 mmHg 77%
    09:00 +5°C° 0 mm 2 m/s 674 mmHg 72%
    10:00 +6°C° 0 mm 2 m/s 674 mmHg 67%
    11:00 +8°C° 0 mm 3 m/s 674 mmHg 62%
    12:00 +9°C° 0 mm 3 m/s 674 mmHg 57%
    13:00 +9°C° 0 mm 3 m/s 674 mmHg 57%
    14:00 +10°C° 0 mm 4 m/s 674 mmHg 56%
    15:00 +10°C° 0 mm 4 m/s 673 mmHg 56%
    16:00 +8°C° 0 mm 4 m/s 673 mmHg 62%
    17:00 +7°C° 0 mm 4 m/s 673 mmHg 69%
    18:00 +7°C° 0 mm 3 m/s 673 mmHg 76%
    19:00 +5°C° 0 mm 3 m/s 673 mmHg 81%
    20:00 +5°C° 0 mm 2 m/s 673 mmHg 86%
    21:00 +5°C° 0 mm 2 m/s 674 mmHg 91%
    22:00 +4°C° 0 mm 2 m/s 674 mmHg 92%
    23:00 +5°C° 0 mm 1 m/s 673 mmHg 94%

    28 Março, Quinta-feira

    Tempo Temperatura Precipitação Vento Pressão Humidade
    00:00 +4°C° 0 mm 1 m/s 673 mmHg 95%
    01:00 +4°C° 0 mm 1 m/s 673 mmHg 96%
    02:00 +3°C° 0 mm 1 m/s 673 mmHg 96%
    03:00 +3°C° 0 mm 1 m/s 673 mmHg 96%
    04:00 +3°C° 0 mm 1 m/s 673 mmHg 96%
    05:00 +3°C° 0 mm 1 m/s 673 mmHg 95%
    06:00 +3°C° 0 mm 1 m/s 673 mmHg 94%
    07:00 +5°C° 0 mm 1 m/s 674 mmHg 82%
    08:00 +7°C° 0 mm 1 m/s 675 mmHg 69%
    09:00 +9°C° 0 mm 1 m/s 675 mmHg 56%
    10:00 +10°C° 0 mm 1 m/s 675 mmHg 50%
    11:00 +12°C° 0 mm 1 m/s 675 mmHg 45%
    12:00 +13°C° 0 mm 1 m/s 675 mmHg 39%
    13:00 +13°C° 0 mm 2 m/s 675 mmHg 41%
    14:00 +14°C° 0 mm 2 m/s 675 mmHg 42%
    15:00 +14°C° 0 mm 2 m/s 675 mmHg 44%
    16:00 +12°C° 0 mm 3 m/s 675 mmHg 54%
    17:00 +10°C° 0 mm 3 m/s 674 mmHg 65%
    18:00 +9°C° 0 mm 3 m/s 674 mmHg 75%
    19:00 +8°C° 0 mm 3 m/s 675 mmHg 80%
    20:00 +8°C° 0 mm 2 m/s 675 mmHg 85%
    21:00 +8°C° 0 mm 1 m/s 675 mmHg 90%
    22:00 +8°C° 0 mm 1 m/s 675 mmHg 89%
    23:00 +8°C° 0 mm 1 m/s 675 mmHg 88%

    29 Março, Sexta-feira

    Tempo Temperatura Precipitação Vento Pressão Humidade
    00:00 +8°C° 0 mm 1 m/s 675 mmHg 87%
    01:00 +8°C° 0 mm 1 m/s 675 mmHg 88%
    02:00 +8°C° 0 mm 1 m/s 674 mmHg 88%
    03:00 +6°C° 0 mm 0 m/s 674 mmHg 89%
    04:00 +6°C° 0 mm 0 m/s 674 mmHg 89%
    05:00 +6°C° 0 mm 0 m/s 674 mmHg 89%
    06:00 +6°C° 0 mm 0 m/s 675 mmHg 90%
    07:00 +8°C° 0 mm 1 m/s 675 mmHg 79%
    08:00 +10°C° 0 mm 1 m/s 676 mmHg 69%
    09:00 +12°C° 0 mm 2 m/s 676 mmHg 58%
    10:00 +12°C° 0 mm 2 m/s 676 mmHg 56%
    11:00 +12°C° 0 mm 3 m/s 676 mmHg 54%
    12:00 +13°C° 0 mm 3 m/s 676 mmHg 52%
    13:00 +13°C° 0.1 mm 3 m/s 676 mmHg 54%
    14:00 +12°C° 0.1 mm 3 m/s 675 mmHg 56%
    15:00 +13°C° 0.1 mm 2 m/s 675 mmHg 58%
    16:00 +12°C° 0.1 mm 2 m/s 675 mmHg 63%
    17:00 +10°C° 0.1 mm 2 m/s 674 mmHg 68%
    18:00 +11°C° 0.1 mm 1 m/s 674 mmHg 73%
    19:00 +10°C° 0 mm 1 m/s 674 mmHg 78%
    20:00 +9°C° 0 mm 1 m/s 675 mmHg 84%
    21:00 +8°C° 0 mm 1 m/s 675 mmHg 89%
    22:00 +8°C° 0 mm 1 m/s 674 mmHg 90%
    23:00 +7°C° 0 mm 1 m/s 674 mmHg 91%
    Mostrar mais